Regional Weather Roundup
Issued by NWS

Home | Current Version | Previous Version | Graphics & Text | Print | Product List | Glossary On
Versions: 1 2 3 4 5 6 7 8 9 10 11 12 13 14 15 16 17 18 19 20 21 22 23 24 25 26 27 28 29 30 31 32 33 34 35 36 37 38 39 40 41 42 43 44 45 46 47 48 49 50
000
ASUS43 KLMK 290402
RWRKY
KENTUCKY REGIONAL WEATHER ROUNDUP
NATIONAL WEATHER SERVICE LOUISVILLE KY
1200 AM EDT TUE JUL 29 2014

NOTE "FAIR" INDICATES FEW OR NO CLOUDS BELOW 12,000 FEET
WITH NO SIGNIFICANT WEATHER AND/OR OBSTRUCTIONS TO VISIBILITY.

KYZ001>023-026-027-061>063-070>075-290500-
WESTERN AND SOUTH CENTRAL KENTUCKY

CITY           SKY/WX    TMP DP  RH WIND       PRES   REMARKS
PADUCAH        CLEAR     69  58  67 N7        30.08R
HENDERSON      CLEAR     64  54  68 N7        30.08R
OWENSBORO      CLEAR     65  55  69 N8        30.07R
HOPKINSVILLE   CLEAR     68  59  73 NW5       30.06R
BOWLING GREEN  CLEAR     68  57  68 NW3       30.05S
GLASGOW        CLEAR     67  55  66 N5        30.04S
$$

KYZ024-025-028>034-038-045-046-053-290500-
NORTH CENTRAL KENTUCKY

CITY           SKY/WX    TMP DP  RH WIND       PRES   REMARKS
LOUISVILLE/SDF PTCLDY    66  55  67 N9        30.03S
LOUISVILLE/LOU CLEAR     66  55  67 N8        30.04S
FORT KNOX      CLEAR     63  57  80 NW9       30.04R
$$

KYZ035>037-039>044-047>052-055>060-089>105-290500-
NORTHEAST KENTUCKY

CITY           SKY/WX    TMP DP  RH WIND       PRES   REMARKS
LEXINGTON      CLEAR     63  55  75 N7        30.03R
COVINGTON      CLEAR     59  51  75 NW6       30.02S
FRANKFORT      CLEAR     62  56  80 NW3       30.02S
$$

KYZ054-064>069-076>088-106>120-290500-
SOUTHEAST KENTUCKY

CITY           SKY/WX    TMP DP  RH WIND       PRES   REMARKS
JACKSON        MOCLDY    63  59  87 W5        30.01S
LONDON         CLEAR     64  58  80 CALM      30.02S
SOMERSET       NOT AVBL
MIDDLESBORO    MOCLDY    61  60  96 CALM      30.02S
MONTICELLO     MOCLDY    64  63  97 CALM      30.04S
$$



USA.gov is the U.S. government's official web portal to all federal, state and local government web resources and services.